Location: Paris
(48.6709°N, 2.3750°E)
Time: 12:51:31
(UTC+02:00)

CUBESAT XI-V - Pass Details

Date: 01 July 2022
Orbit: 668 x 690 km, 98.1° (Epoch: 17 August)

Event Time Altitude Azimuth Distance (km) Brightness Sun altitude
Exits shadow 03:19:14 18° 158° (SSE) 1,647 ? -15.7°
Maximum altitude 03:22:41 78° 75° (ENE) 693 ? -15.5°
Drops below altitude 10° 03:27:18 10° 349° (NNW) 2,111 ? -15.3°
Sets 03:29:32 0° 348° (NNW) 3,027 ? -15.1°
